Pennock, MN

5:32 AM CST on January 21, 2017 (GMT -0600)
Willmar

Weather History for KBDH - March, 2014

Change the Weather History Date:

Tuesday, March 25, 2014

  Actual Average (KBBB) Record (KBBB)
Temperature  
Mean Temperature 19 °F -  
Max Temperature 28 °F 44 °F 69 °F (2004)
Min Temperature 10 °F 26 °F -5 °F (1964)
Degree Days  
Heating Degree Days 46    
Moisture  
Dew Point 5 °F    
Average Humidity 57    
Maximum Humidity 79    
Minimum Humidity 34    
Precipitation  
Precipitation 0.00 in - - ()
Sea Level Pressure  
Sea Level Pressure 30.23 in    
Wind  
Wind Speed 13 mph (NW)    
Max Wind Speed 21 mph    
Max Gust Speed 28 mph    
Visibility 10 miles    
Events Snow    
Averages and records for this station are not official NWS values.
T = Trace of Precipitation, MM = Missing Value Source: NWS Daily Summary

Daily Weather History Graph

Daily Weather History Graph

Search for Another Location

Airport or City:

Trip Planner

Search our weather history database for the weather conditions in past years. The results will help you decide how hot, cold, wet, or windy it might be!

Date:

Astronomy

Mar. 25, 2014 Rise Set
Actual Time 7:14 AM CDT 7:39 PM CDT
Civil Twilight 6:44 AM CDT 8:09 PM CDT
Nautical Twilight 6:09 AM CDT 8:43 PM CDT
Astronomical Twilight 5:34 AM CDT 9:19 PM CDT
Moon 3:50 AM CDT (3/25) 1:58 PM CDT (3/25)
Length of Visible Light 13h 24m
Length of Day
12h 25m
Waning Crescent, 32% of the Moon is Illuminated
Mar 25
Waning Crescent
Mar 30
New
Apr 7
First Quarter
Apr 15
Full
Apr 22
Last Quarter

Hourly Weather History & Observations

Time (CDT) Temp. Windchill Dew Point Humidity Pressure Visibility Wind Dir Wind Speed Gust Speed Precip Events Conditions
12:15 AM 21.2 °F 8.3 °F 14.0 °F 74% 30.18 in 10.0 mi NNW 13.8 mph - N/A   Mostly Cloudy
12:35 AM 21.2 °F 6.4 °F 10.4 °F 63% 30.19 in 10.0 mi NNW 18.4 mph 27.6 mph N/A   Scattered Clouds
12:55 AM 19.4 °F 4.1 °F 8.6 °F 63% 30.19 in 10.0 mi NW 18.4 mph 21.9 mph N/A   Scattered Clouds
1:15 AM 19.4 °F 3.6 °F 10.4 °F 68% 30.20 in 5.0 mi NNW 19.6 mph - N/A Snow Light Snow
1:35 AM 17.6 °F 0.9 °F 6.8 °F 63% 30.21 in 10.0 mi North 20.7 mph - N/A   Mostly Cloudy
1:55 AM 17.6 °F 2.2 °F 6.8 °F 63% 30.22 in 10.0 mi North 17.3 mph 23.0 mph N/A   Mostly Cloudy
2:15 AM 15.8 °F 0.3 °F 6.8 °F 68% 30.22 in 10.0 mi North 16.1 mph 21.9 mph N/A   Scattered Clouds
2:36 AM 15.8 °F 1.4 °F 6.8 °F 68% 30.23 in 10.0 mi North 13.8 mph 21.9 mph N/A   Scattered Clouds
2:55 AM 15.8 °F 2.1 °F 5.0 °F 62% 30.23 in 10.0 mi NNW 12.7 mph - N/A   Clear
3:16 AM 14.0 °F 0.5 °F 5.0 °F 67% 30.24 in 10.0 mi North 11.5 mph - N/A   Clear
3:35 AM 14.0 °F 3.9 °F 5.0 °F 67% 30.24 in 10.0 mi NNW 6.9 mph - N/A   Clear
3:56 AM 14.0 °F -2.5 °F 3.2 °F 62% 30.25 in 10.0 mi NNW 17.3 mph 20.7 mph N/A   Clear
4:15 AM 12.2 °F -3.1 °F 3.2 °F 67% 30.25 in 10.0 mi North 13.8 mph - N/A   Clear
4:36 AM 12.2 °F -3.1 °F 3.2 °F 67% 30.26 in 10.0 mi NNW 13.8 mph - N/A   Clear
4:55 AM 12.2 °F -2.5 °F 3.2 °F 67% 30.27 in 10.0 mi NNW 12.7 mph 16.1 mph N/A   Scattered Clouds
5:15 AM 12.2 °F -1.0 °F 3.2 °F 67% 30.27 in 10.0 mi NNW 10.4 mph - N/A   Mostly Cloudy
5:35 AM 12.2 °F 0.7 °F 3.2 °F 67% 30.28 in 10.0 mi NW 8.1 mph - N/A   Scattered Clouds
5:56 AM 12.2 °F -2.5 °F 3.2 °F 67% 30.28 in 10.0 mi NNW 12.7 mph - N/A   Scattered Clouds
6:15 AM 12.2 °F -2.5 °F 3.2 °F 67% 30.29 in 10.0 mi NW 12.7 mph 17.3 mph N/A   Scattered Clouds
6:36 AM 12.2 °F -1.0 °F 3.2 °F 67% 30.29 in 10.0 mi NW 10.4 mph - N/A   Scattered Clouds
6:55 AM 12.2 °F 0.7 °F 5.0 °F 73% 30.28 in 10.0 mi NW 8.1 mph - N/A   Scattered Clouds
7:16 AM 10.4 °F -0.4 °F 5.0 °F 79% 30.29 in 10.0 mi WNW 6.9 mph - N/A   Scattered Clouds
7:35 AM 12.2 °F 2.9 °F 5.0 °F 73% 30.29 in 10.0 mi WNW 5.8 mph - N/A   Clear
7:56 AM 12.2 °F -0.2 °F 5.0 °F 73% 30.29 in 10.0 mi NW 9.2 mph - N/A   Clear
8:15 AM 12.2 °F -1.8 °F 5.0 °F 73% 30.29 in 10.0 mi NNW 11.5 mph - N/A   Clear
8:36 AM 12.2 °F -2.5 °F 6.8 °F 79% 30.29 in 10.0 mi NW 12.7 mph - N/A   Clear
8:55 AM 14.0 °F -1.4 °F 6.8 °F 73% 30.30 in 10.0 mi NW 15.0 mph - N/A   Scattered Clouds
9:15 AM 14.0 °F -0.8 °F 5.0 °F 67% 30.31 in 10.0 mi NW 13.8 mph - N/A   Scattered Clouds
9:35 AM 15.8 °F 0.9 °F 3.2 °F 58% 30.32 in 10.0 mi WNW 15.0 mph - N/A   Clear
9:56 AM 15.8 °F 0.9 °F 3.2 °F 58% 30.32 in 10.0 mi WNW 15.0 mph 19.6 mph N/A   Clear
10:15 AM 15.8 °F 0.3 °F 3.2 °F 58% 30.32 in 10.0 mi WNW 16.1 mph - N/A   Scattered Clouds
10:36 AM 17.6 °F 3.7 °F 3.2 °F 53% 30.32 in 10.0 mi WNW 13.8 mph 18.4 mph N/A   Scattered Clouds
10:55 AM 15.8 °F 3.4 °F 3.2 °F 58% 30.31 in 10.0 mi WNW 10.4 mph - N/A   Scattered Clouds
11:16 AM 17.6 °F 3.2 °F 3.2 °F 53% 30.31 in 10.0 mi NW 15.0 mph - N/A   Mostly Cloudy
11:35 AM 17.6 °F 4.3 °F 3.2 °F 53% 30.31 in 10.0 mi WNW 12.7 mph 18.4 mph N/A   Scattered Clouds
11:56 AM 17.6 °F 5.7 °F 3.2 °F 53% 30.31 in 10.0 mi WNW 10.4 mph - N/A   Mostly Cloudy
12:15 PM 19.4 °F 6.0 °F 1.4 °F 46% 30.31 in 10.0 mi West 13.8 mph - N/A   Mostly Cloudy
12:35 PM 19.4 °F 7.9 °F 5.0 °F 54% 30.30 in 10.0 mi West 10.4 mph - N/A   Mostly Cloudy
12:56 PM 19.4 °F 7.9 °F 3.2 °F 49% 30.28 in 10.0 mi NW 10.4 mph 19.6 mph N/A   Scattered Clouds
1:15 PM 21.2 °F 7.3 °F 3.2 °F 46% 30.28 in 10.0 mi NW 16.1 mph 19.6 mph N/A   Mostly Cloudy
1:35 PM 21.2 °F 8.3 °F 5.0 °F 50% 30.27 in 10.0 mi West 13.8 mph 20.7 mph N/A   Mostly Cloudy
1:56 PM 21.2 °F 7.3 °F 3.2 °F 46% 30.26 in 10.0 mi WNW 16.1 mph 19.6 mph N/A   Scattered Clouds
2:15 PM 23.0 °F 10.6 °F 3.2 °F 43% 30.26 in 10.0 mi NW 13.8 mph - N/A   Scattered Clouds
2:36 PM 23.0 °F 10.1 °F 3.2 °F 43% 30.24 in 10.0 mi West 15.0 mph 18.4 mph N/A   Scattered Clouds
2:56 PM 24.8 °F 12.4 °F 5.0 °F 43% 30.23 in 10.0 mi West 15.0 mph 21.9 mph N/A   Scattered Clouds
3:15 PM 24.8 °F 11.9 °F 5.0 °F 43% 30.23 in 10.0 mi West 16.1 mph 21.9 mph N/A   Scattered Clouds
3:35 PM 24.8 °F 12.4 °F 3.2 °F 40% 30.22 in 10.0 mi WNW 15.0 mph - N/A   Scattered Clouds
3:56 PM 24.8 °F 11.9 °F 3.2 °F 40% 30.21 in 10.0 mi WNW 16.1 mph - N/A   Scattered Clouds
4:15 PM 26.6 °F 17.5 °F 3.2 °F 37% 30.20 in 10.0 mi WNW 9.2 mph 19.6 mph N/A   Scattered Clouds
4:35 PM 26.6 °F 16.8 °F 3.2 °F 37% 30.19 in 10.0 mi NW 10.4 mph 20.7 mph N/A   Scattered Clouds
4:56 PM 26.6 °F 15.7 °F 3.2 °F 37% 30.19 in 10.0 mi WNW 12.7 mph 18.4 mph N/A   Scattered Clouds
5:15 PM 26.6 °F 16.2 °F 3.2 °F 37% 30.18 in 10.0 mi WNW 11.5 mph 18.4 mph N/A   Scattered Clouds
5:35 PM 26.6 °F 15.2 °F 1.4 °F 34% 30.18 in 10.0 mi NW 13.8 mph 19.6 mph N/A   Scattered Clouds
5:56 PM 28.4 °F 18.0 °F 3.2 °F 34% 30.17 in 10.0 mi West 12.7 mph 17.3 mph N/A   Clear
6:15 PM 26.6 °F 18.2 °F 3.2 °F 37% 30.17 in 10.0 mi West 8.1 mph - N/A   Clear
6:35 PM 26.6 °F 16.8 °F 3.2 °F 37% 30.17 in 10.0 mi NW 10.4 mph - N/A   Clear
6:56 PM 26.6 °F 16.2 °F 3.2 °F 37% 30.17 in 10.0 mi WNW 11.5 mph - N/A   Clear
7:15 PM 26.6 °F 17.5 °F 3.2 °F 37% 30.16 in 10.0 mi WNW 9.2 mph - N/A   Clear
7:35 PM 24.8 °F 17.9 °F 3.2 °F 40% 30.15 in 10.0 mi WNW 5.8 mph - N/A   Clear
7:56 PM 23.0 °F 17.0 °F 5.0 °F 46% 30.15 in 10.0 mi NW 4.6 mph - N/A   Clear
8:15 PM 23.0 °F - 5.0 °F 46% 30.15 in 10.0 mi Calm Calm - N/A   Clear
8:35 PM 23.0 °F - 8.6 °F 54% 30.15 in 10.0 mi Calm Calm - N/A   Clear
8:56 PM 21.2 °F - 5.0 °F 50% 30.15 in 10.0 mi Calm Calm - N/A   Clear
9:15 PM 21.2 °F - 8.6 °F 58% 30.16 in 10.0 mi Calm Calm - N/A   Clear
9:35 PM 19.4 °F - 8.6 °F 63% 30.14 in 10.0 mi Calm Calm - N/A   Clear
9:55 PM 17.6 °F - 10.4 °F 73% 30.14 in 10.0 mi Calm Calm - N/A   Clear
10:15 PM 19.4 °F - 10.4 °F 68% 30.13 in 10.0 mi Calm Calm - N/A   Clear
10:36 PM 17.6 °F - 10.4 °F 73% 30.14 in 10.0 mi Calm Calm - N/A   Clear
10:55 PM 19.4 °F 14.3 °F 10.4 °F 68% 30.13 in 10.0 mi SSE 3.5 mph - N/A   Clear
11:16 PM 17.6 °F - 10.4 °F 73% 30.13 in 10.0 mi Calm Calm - N/A   Clear
11:35 PM 15.8 °F 10.2 °F 10.4 °F 79% 30.13 in 10.0 mi ESE 3.5 mph - N/A   Clear
11:56 PM 15.8 °F 10.2 °F 8.6 °F 73% 30.11 in 10.0 mi ESE 3.5 mph - N/A   Clear